Location: Killam
(52.7910°N, 111.8608°W)
Time: 05:56:05
(UTC+00:00)

A-11 Canister half - Pass Details

Date: 20 February 2026
Orbit: 1524 x 1683 km, 47.3° (Epoch: 13 March)

Event Time Altitude Azimuth Distance (km) Brightness Sun altitude
Rises 02:39:03 0° 266° (W) 4,694 13.2 -17.4°
Reaches altitude 10° 02:42:08 10° 263° (W) 3,701 12.2 -17.9°
Maximum altitude 02:51:15 63° 186° (S) 1,679 9.1 -19.3°
Enters shadow 02:56:40 27° 116° (ESE) 2,595 9.6 -20.1°
Drops below altitude 10° 03:00:23 10° 108° (ESE) 3,711 - -20.6°
Sets 03:03:29 0° 106° (ESE) 4,707 - -21.1°
